FW7515 Weather Reports


Display with metric or nautical units.
time (UTC)temp
F
wind
direction
speed
MPH
gust
MPH
rain 1hr
in
rain 24hr
in
rain mn
in
humidity
%
barometer
mb
20260509021531 73 183 2.0 6.0 0.00 0.52 0.52 80 1008.4
20260509021049 73 180 2.0 5.0 0.00 0.52 0.52 80 1008.2
20260509020527 73 186 2.0 7.0 0.00 0.52 0.52 79 1008.0
20260509020025 73 172 3.0 6.0 0.00 0.52 0.52 79 1008.0
20260509015523 73 192 3.0 6.0 0.00 0.52 0.52 79 1008.1
20260509015021 73 186 3.0 6.0 0.00 0.52 0.52 79 1008.3
20260509014519 73 183 3.0 7.0 0.00 0.52 0.52 78 1008.4
20260509014017 73 174 2.0 6.0 0.00 0.52 0.52 78 1008.6
20260509013535 73 155 1.0 4.0 0.00 0.52 0.52 78 1008.7
20260509013032 73 168 1.0 4.0 0.00 0.52 0.52 77 1008.7
20260509012530 74 145 2.0 4.0 0.00 0.52 0.52 77 1009.0
20260509012027 74 172 1.0 4.0 0.00 0.52 0.52 77 1009.0
20260509011524 74 169 1.0 3.0 0.00 0.52 0.52 77 1009.1
20260509011022 74 163 1.0 3.0 0.00 0.52 0.52 77 1008.9
20260509010540 74 190 1.0 3.0 0.00 0.52 0.52 76 1008.6
20260509010018 74 147 1.0 4.0 0.00 0.52 0.52 76 1008.6
20260509005516 74 176 2.0 4.0 0.00 0.52 0.52 76 1008.6
20260509005034 74 181 2.0 6.0 0.00 0.52 0.52 76 1008.6
20260509004532 74 202 2.0 5.0 0.00 0.52 0.52 75 1008.5
20260509004030 74 192 3.0 10.0 0.00 0.52 0.52 75 1008.5
20260509003528 74 196 2.0 4.0 0.00 0.52 0.52 75 1008.4
20260509003025 74 215 2.0 7.0 0.00 0.52 0.52 75 1008.4
20260509002524 74 171 2.0 4.0 0.00 0.52 0.52 74 1008.3
20260509002022 75 188 2.0 7.0 0.00 0.52 0.52 74 1008.4
20260509001520 75 210 2.0 5.0 0.00 0.52 0.52 74 1008.2
20260509001018 75 191 2.0 5.0 0.00 0.52 0.52 73 1008.2
20260509000516 75 176 3.0 8.0 0.00 0.52 0.52 73 1008.2
20260509000034 75 191 2.0 5.0 0.00 0.52 0.52 72 1008.4
20260508235532 75 196 2.0 4.0 0.00 0.52 0.52 72 1008.4
20260508235050 75 207 2.0 5.0 0.00 0.52 0.52 72 1008.6
20260508234527 75 198 3.0 6.0 0.00 0.52 0.52 72 1008.7
20260508234026 75 168 2.0 5.0 0.00 0.52 0.52 71 1008.8
20260508233524 75 161 3.0 6.0 0.00 0.52 0.52 71 1008.8
20260508233022 75 161 2.0 6.0 0.00 0.52 0.52 71 1008.8
20260508232520 76 176 2.0 6.0 0.00 0.52 0.52 70 1008.7
20260508232019 76 187 2.0 5.0 0.00 0.52 0.52 69 1008.8
20260508231537 76 190 3.0 7.0 0.00 0.52 0.52 69 1008.8
20260508231015 76 172 3.0 7.0 0.00 0.52 0.52 68 1008.6
20260508230534 77 160 2.0 4.0 0.00 0.52 0.52 67 1008.7
20260508230031 77 204 3.0 6.0 0.00 0.52 0.52 67 1008.7
20260508225529 77 207 3.0 7.0 0.00 0.52 0.52 66 1008.8
20260508225027 77 187 3.0 6.0 0.00 0.52 0.52 66 1008.7
20260508224525 78 155 3.0 6.0 0.00 0.52 0.52 65 1008.6
20260508224022 78 204 2.0 7.0 0.00 0.52 0.52 64 1008.8
20260508223520 79 158 3.0 7.0 0.00 0.52 0.52 63 1008.7
20260508223019 78 212 4.0 9.0 0.00 0.52 0.52 64 1008.8
20260508222516 78 186 3.0 6.0 0.00 0.52 0.52 64 1008.8
20260508222035 79 187 3.0 8.0 0.00 0.52 0.52 63 1008.8
20260508221533 79 177 3.0 9.0 0.00 0.52 0.52 62 1008.7
20260508221031 79 178 3.0 11.0 0.00 0.52 0.52 61 1008.8
20260508220528 79 162 3.0 8.0 0.00 0.52 0.52 60 1008.7
20260508220026 79 193 2.0 5.0 0.00 0.52 0.52 61 1008.8
20260508215545 79 182 3.0 8.0 0.00 0.52 0.52 61 1008.8
20260508215022 79 175 4.0 8.0 0.00 0.52 0.52 60 1008.8
20260508214520 79 184 3.0 7.0 0.00 0.52 0.52 59 1009.0
20260508214018 79 158 5.0 14.0 0.00 0.52 0.52 59 1009.0
20260508213536 80 192 3.0 8.0 0.00 0.52 0.52 58 1009.0
20260508213034 80 200 3.0 7.0 0.00 0.52 0.52 58 1009.0
20260508212531 79 185 2.0 7.0 0.00 0.52 0.52 58 1009.1
20260508212029 79 184 3.0 7.0 0.00 0.52 0.52 58 1009.3
20260508211527 80 199 3.0 8.0 0.00 0.52 0.52 58 1009.4
20260508211025 79 158 2.0 9.0 0.00 0.52 0.52 59 1009.4
20260508210523 79 194 3.0 10.0 0.00 0.52 0.52 59 1009.5
20260508210021 79 179 3.0 8.0 0.00 0.52 0.52 59 1009.6
20260508205519 79 190 3.0 8.0 0.00 0.52 0.52 58 1009.8
20260508205018 79 209 2.0 6.0 0.00 0.52 0.52 58 1009.6
20260508204516 78 185 3.0 6.0 0.00 0.52 0.52 59 1009.4
20260508204033 78 126 3.0 9.0 0.00 0.52 0.52 60 1009.5
20260508203531 77 110 3.0 7.0 0.00 0.52 0.52 60 1009.5
20260508203029 77 179 3.0 7.0 0.00 0.52 0.52 60 1009.9
20260508202528 76 197 2.0 6.0 0.00 0.52 0.52 61 1010.5
20260508202046 76 178 2.0 6.0 0.00 0.52 0.52 62 1010.7
20260508201524 74 209 3.0 8.0 0.00 0.52 0.52 64 1010.8
20260508201021 74 193 3.0 8.0 0.00 0.52 0.52 65 1010.9
20260508200519 74 202 3.0 5.0 0.00 0.52 0.52 65 1011.1
20260508200017 74 207 3.0 6.0 0.00 0.52 0.52 65 1011.3
20260508195515 75 211 4.0 10.0 0.00 0.52 0.52 64 1011.3
20260508195033 76 213 3.0 9.0 0.00 0.52 0.52 63 1011.2
20260508194551 76 210 3.0 7.0 0.00 0.52 0.52 62 1011.1
20260508194028 76 213 2.0 7.0 0.00 0.52 0.52 61 1011.1
20260508193526 76 210 3.0 9.0 0.00 0.52 0.52 62 1011.2
20260508193024 76 220 4.0 8.0 0.00 0.52 0.52 61 1011.1
20260508192522 76 179 3.0 8.0 0.00 0.52 0.52 61 1011.1
20260508192041 76 201 3.0 7.0 0.00 0.52 0.52 61 1011.1
20260508191518 77 171 3.0 7.0 0.00 0.52 0.52 61 1011.2
20260508191036 76 202 3.0 7.0 0.00 0.52 0.52 61 1011.2
20260508190534 77 201 3.0 7.0 0.00 0.52 0.52 60 1011.4
20260508190032 77 226 3.0 6.0 0.00 0.52 0.52 60 1011.5
20260508185530 78 152 3.0 7.0 0.00 0.52 0.52 59 1011.3
20260508185029 78 147 3.0 7.0 0.00 0.52 0.52 58 1011.2
20260508184527 78 183 2.0 6.0 0.00 0.52 0.52 58 1011.4
20260508184025 77 194 3.0 9.0 0.00 0.52 0.52 59 1011.5
20260508183523 78 213 3.0 7.0 0.00 0.52 0.52 58 1011.5
20260508183021 78 224 2.0 5.0 0.00 0.52 0.52 58 1011.6
20260508182519 78 214 2.0 7.0 0.00 0.52 0.52 57 1011.7
20260508182017 78 216 3.0 6.0 0.00 0.52 0.52 58 1011.8
20260508181515 78 173 2.0 6.0 0.00 0.52 0.52 58 1011.8
20260508181033 77 179 2.0 6.0 0.00 0.52 0.52 59 1011.8
20260508180531 77 198 2.0 5.0 0.00 0.52 0.52 59 1012.0
20260508180029 77 198 3.0 7.0 0.00 0.52 0.52 59 1012.2
20260508175527 76 219 4.0 9.0 0.00 0.52 0.52 59 1012.2
20260508175025 78 208 3.0 7.0 0.00 0.52 0.52 57 1012.2
20260508174523 78 196 3.0 7.0 0.00 0.52 0.52 57 1012.2
20260508174021 77 143 3.0 7.0 0.00 0.52 0.52 57 1012.3
20260508173519 77 191 3.0 7.0 0.00 0.52 0.52 58 1012.4
20260508173016 77 156 3.0 7.0 0.00 0.52 0.52 57 1012.3
20260508172534 77 181 3.0 8.0 0.00 0.52 0.52 57 1012.5
20260508172032 76 157 4.0 10.0 0.00 0.52 0.52 58 1012.6
20260508171530 76 155 4.0 9.0 0.00 0.52 0.52 59 1012.7
20260508171028 75 195 3.0 7.0 0.00 0.52 0.52 60 1012.9
20260508170526 74 210 3.0 8.0 0.00 0.52 0.52 62 1012.8
20260508170044 75 216 4.0 13.0 0.00 0.52 0.52 61 1012.8
20260508165522 76 213 3.0 9.0 0.00 0.52 0.52 60 1012.9
20260508165040 75 191 2.0 7.0 0.00 0.52 0.52 61 1013.1
20260508164539 74 211 3.0 6.0 0.00 0.52 0.52 63 1013.2
20260508164036 74 216 4.0 9.0 0.00 0.52 0.52 63 1013.3
20260508163534 74 178 3.0 5.0 0.00 0.52 0.52 63 1013.2
20260508163053 73 175 2.0 6.0 0.00 0.52 0.52 64 1013.3
20260508162530 73 146 3.0 5.0 0.00 0.52 0.52 65 1013.6
20260508162028 73 181 3.0 9.0 0.00 0.52 0.52 65 1013.5
20260508161526 73 157 2.0 6.0 0.00 0.52 0.52 64 1013.5
20260508161044 72 155 2.0 6.0 0.00 0.52 0.52 64 1013.7
20260508160521 72 178 2.0 5.0 0.00 0.52 0.52 64 1013.8
20260508160039 72 202 2.0 4.0 0.00 0.52 0.52 64 1014.0
20260508155515 72 200 2.0 4.0 0.00 0.52 0.52 65 1013.9
20260508155032 71 172 2.0 4.0 0.00 0.52 0.52 64 1013.7
20260508154548 71 140 3.0 7.0 0.00 0.52 0.52 64 1013.8
20260508154026 71 185 2.0 5.0 0.00 0.52 0.52 65 1013.9
20260508153523 70 185 2.0 5.0 0.00 0.52 0.52 64 1013.9
20260508153020 70 168 2.0 5.0 0.00 0.52 0.52 64 1014.0
20260508152536 70 190 2.0 4.0 0.00 0.52 0.52 64 1014.1
20260508152054 70 171 3.0 5.0 0.00 0.52 0.52 65 1014.1
20260508151530 70 187 2.0 4.0 0.00 0.52 0.52 66 1014.2
20260508151027 69 187 2.0 5.0 0.00 0.52 0.52 66 1014.2
20260508150524 69 221 1.0 4.0 0.00 0.52 0.52 67 1014.4
20260508150021 68 139 2.0 5.0 0.00 0.52 0.52 68 1014.3
20260508145557 68 167 1.0 4.0 0.00 0.52 0.52 68 1014.4
20260508145034 67 158 2.0 5.0 0.00 0.52 0.52 69 1014.4
20260508144531 67 170 2.0 5.0 0.00 0.52 0.52 70 1014.5
20260508144048 67 70 2.0 4.0 0.00 0.52 0.52 72 1014.5
20260508143525 66 176 2.0 4.0 0.00 0.52 0.52 73 1014.4
20260508143022 66 186 2.0 5.0 0.00 0.52 0.52 74 1014.5
20260508142517 66 221 2.0 5.0 0.00 0.52 0.52 74 1014.5
20260508142035 66 182 2.0 4.0 0.00 0.52 0.52 74 1014.6
20260508141532 65 205 2.0 4.0 0.00 0.52 0.52 76 1014.7
20260508141049 65 203 2.0 5.0 0.00 0.52 0.52 77 1014.7
20260508140526 64 191 2.0 4.0 0.00 0.52 0.52 78 1014.5
20260508140025 64 170 2.0 5.0 0.00 0.52 0.52 80 1014.5
20260508135520 64 187 1.0 4.0 0.00 0.52 0.52 81 1014.4
20260508135017 64 202 2.0 4.0 0.00 0.52 0.52 81 1014.5
20260508134555 63 199 2.0 5.0 0.00 0.52 0.52 82 1014.4
20260508134031 63 182 2.0 5.0 0.00 0.52 0.52 82 1014.4
20260508133528 63 164 2.0 5.0 0.00 0.52 0.52 85 1014.3
20260508133025 63 160 1.0 3.0 0.01 0.52 0.52 87 1014.5
20260508132522 62 172 2.0 6.0 0.02 0.52 0.52 89 1014.5
20260508132039 62 165 2.0 4.0 0.02 0.52 0.52 90 1014.5
20260508131515 62 157 2.0 4.0 0.02 0.52 0.52 92 1014.4
20260508131032 61 151 2.0 4.0 0.02 0.52 0.52 93 1014.3
20260508130529 61 192 1.0 4.0 0.02 0.52 0.52 93 1014.4
20260508130026 61 218 1.0 3.0 0.02 0.52 0.52 93 1014.5
20260508125523 60 203 1.0 3.0 0.02 0.52 0.52 94 1014.6
20260508125020 60 200 1.0 3.0 0.07 0.52 0.52 94 1014.7
20260508124516 60 109 1.0 2.0 0.16 0.52 0.52 94 1014.6
20260508124034 60 186 1.0 4.0 0.17 0.52 0.52 94 1014.7
20260508123531 60 238 1.0 2.0 0.17 0.52 0.52 94 1014.9
20260508123209 60 277 0.0 3.0 0.16 0.51 0.51 93 1014.9
20260508122525 60 297 1.0 3.0 0.15 0.50 0.50 93 1014.7
20260508122021 60 117 2.0 4.0 0.15 0.50 0.50 93 1014.5
20260508121518 60 147 0.0 2.0 0.15 0.50 0.50 93 1014.7
20260508121035 60 216 0.0 2.0 0.15 0.50 0.50 92 1014.8
20260508120532 60 231 1.0 4.0 0.15 0.50 0.50 92 1014.7
20260508120029 60 175 1.0 4.0 0.15 0.50 0.50 92 1014.6
20260508115526 60 136 3.0 7.0 0.15 0.50 0.50 91 1014.4
20260508115024 61 122 6.0 11.0 0.10 0.45 0.45 89 1014.6
20260508114520 61 218 4.0 7.0 0.00 0.35 0.35 90 1015.6
20260508114017 61 120 2.0 4.0 0.00 0.35 0.35 91 1014.5
20260508113554 61 112 2.0 4.0 0.00 0.35 0.35 90 1014.6
20260508113031 60 98 1.0 3.0 0.00 0.35 0.35 90 1014.7
20260508112528 60 135 0.0 2.0 0.00 0.35 0.35 91 1014.7
20260508112045 60 86 1.0 2.0 0.02 0.35 0.35 91 1014.7
20260508111541 60 94 1.0 2.0 0.10 0.35 0.35 91 1014.5
20260508111018 60 143 2.0 3.0 0.13 0.35 0.35 92 1014.2
20260508110555 60 112 1.0 4.0 0.13 0.35 0.35 92 1014.3
20260508110032 60 137 1.0 4.0 0.13 0.35 0.35 91 1014.3
20260508105529 60 113 1.0 4.0 0.13 0.35 0.35 91 1014.2
20260508105026 60 84 1.0 3.0 0.13 0.35 0.35 91 1014.4
20260508104523 60 11 1.0 3.0 0.13 0.35 0.35 91 1014.5
20260508104019 60 43 2.0 4.0 0.13 0.35 0.35 91 1014.3
20260508103517 60 67 2.0 4.0 0.13 0.35 0.35 91 1014.1
20260508103033 60 96 2.0 5.0 0.14 0.35 0.35 91 1014.0
20260508102530 61 99 3.0 5.0 0.14 0.35 0.35 90 1014.0
20260508102026 61 115 2.0 4.0 0.12 0.33 0.33 89 1014.5
20260508101523 61 76 2.0 3.0 0.04 0.25 0.25 88 1014.7
20260508101019 61 261 2.0 4.0 0.02 0.22 0.22 87 1014.8
20260508100516 60 230 1.0 4.0 0.01 0.22 0.22 89 1014.4
20260508100033 60 135 0.0 2.0 0.01 0.22 0.22 90 1014.0
20260508095529 60 8 1.0 3.0 0.01 0.22 0.22 91 1014.1
20260508095026 60 100 2.0 3.0 0.01 0.22 0.22 91 1014.0
20260508094543 60 111 1.0 3.0 0.01 0.22 0.22 92 1014.0
20260508094020 60 127 1.0 3.0 0.01 0.22 0.22 92 1014.1
20260508093517 60 121 1.0 3.0 0.01 0.22 0.22 93 1014.0
20260508093054 60 82 2.0 3.0 0.00 0.21 0.21 93 1014.0
20260508092531 60 111 1.0 3.0 0.00 0.21 0.21 92 1013.9
20260508092027 60 69 1.0 3.0 0.00 0.21 0.21 92 1014.1
20260508091525 60 79 1.0 3.0 0.00 0.21 0.21 92 1014.0
20260508091041 60 94 2.0 4.0 0.00 0.21 0.21 92 1014.1
20260508090518 60 71 2.0 3.0 0.00 0.21 0.21 92 1014.2
20260508090055 60 40 0.0 2.0 0.00 0.21 0.21 92 1014.3
20260508085532 60 50 1.0 2.0 0.00 0.21 0.21 92 1014.4
20260508085029 60 52 2.0 3.0 0.00 0.21 0.21 91 1014.2
20260508084526 60 81 0.0 2.0 0.00 0.21 0.21 91 1014.2
20260508084022 60 96 0.0 2.0 0.00 0.21 0.21 91 1014.2
20260508083519 60 79 1.0 2.0 0.00 0.21 0.21 91 1014.2
20260508083016 60 62 2.0 4.0 0.00 0.21 0.21 90 1014.4
20260508082533 60 73 3.0 4.0 0.00 0.21 0.21 90 1014.4
20260508082030 60 77 2.0 4.0 0.00 0.21 0.21 90 1014.6
20260508081526 60 45 2.0 3.0 0.01 0.21 0.21 90 1014.8
20260508081044 60 36 2.0 2.0 0.05 0.21 0.21 90 1014.9
20260508080520 60 24 1.0 2.0 0.09 0.21 0.21 89 1015.0
20260508080017 60 112 0.0 2.0 0.13 0.21 0.21 89 1014.9
20260508075534 60 78 1.0 2.0 0.19 0.21 0.21 89 1014.5
20260508075031 60 110 2.0 4.0 0.21 0.21 0.21 89 1014.4
20260508074547 60 109 2.0 4.0 0.21 0.21 0.21 89 1014.5
20260508074024 60 81 2.0 4.0 0.20 0.20 0.20 88 1014.8
20260508073522 60 86 2.0 4.0 0.20 0.20 0.20 87 1015.0
20260508073017 60 70 2.0 3.0 0.20 0.20 0.20 86 1015.3
20260508072535 60 52 1.0 2.0 0.20 0.20 0.20 86 1015.7
20260508072033 61 313 1.0 3.0 0.20 0.20 0.20 86 1015.8
20260508071529 61 295 1.0 2.0 0.20 0.20 0.20 85 1015.8
20260508071025 62 73 1.0 3.0 0.16 0.16 0.16 82 1015.6
20260508070522 62 15 1.0 4.0 0.11 0.11 0.11 80 1015.9
20260508070039 63 150 1.0 2.0 0.08 0.08 0.08 76 1015.6
20260508065536 64 203 1.0 3.0 0.02 0.02 0.02 71 1015.9
20260508065032 64 215 2.0 4.0 0.00 0.00 0.00 68 1015.6
20260508064529 64 120 1.0 2.0 0.00 0.00 0.00 68 1015.2
20260508064046 64 76 1.0 2.0 0.00 0.00 0.00 68 1015.4
20260508063522 64 76 1.0 2.0 0.00 0.00 0.00 68 1015.5
20260508063020 64 86 1.0 2.0 0.00 0.00 0.00 68 1015.7
20260508062517 64 58 0.0 1.0 0.00 0.00 0.00 67 1015.7
20260508062033 64 84 1.0 2.0 0.00 0.00 0.00 67 1015.7
20260508061531 64 0.0 1.0 0.00 0.00 0.00 68 1015.8
20260508061028 64 125 1.0 3.0 0.00 0.00 0.00 68 1015.7
20260508060524 64 138 1.0 3.0 0.00 0.00 0.00 67 1015.7
20260508060020 64 120 1.0 2.0 0.00 0.00 0.00 67 1015.6
20260508055537 64 114 0.0 2.0 0.00 0.00 0.00 67 1015.9
20260508055034 64 97 0.0 2.0 0.00 0.00 0.00 67 1015.8
20260508054551 64 165 1.0 2.0 0.00 0.00 0.00 67 1015.8
20260508054028 63 173 1.0 2.0 0.00 0.00 0.00 68 1015.9
20260508053525 63 148 0.0 2.0 0.00 0.00 0.00 69 1015.8
20260508053021 63 92 0.0 2.0 0.00 0.00 0.00 70 1015.8
20260508052518 63 148 0.0 2.0 0.00 0.00 0.00 70 1015.8
20260508052015 63 123 1.0 2.0 0.00 0.00 0.00 70 1015.7
20260508051532 63 70 0.0 2.0 0.00 0.00 0.00 70 1015.9
20260508051029 63 101 1.0 2.0 0.00 0.00 0.00 70 1015.7
20260508050525 63 109 1.0 2.0 0.00 0.00 0.00 69 1015.8
20260508050022 63 80 0.0 2.0 0.00 0.00 0.05 69 1016.1
20260508045519 63 109 1.0 2.0 0.00 0.00 0.05 69 1015.9
20260508045036 63 79 1.0 2.0 0.00 0.00 0.05 70 1015.9
20260508044533 63 71 1.0 2.0 0.00 0.00 0.05 69 1015.8
20260508044030 64 99 1.0 2.0 0.00 0.00 0.05 68 1015.9
20260508043527 64 112 0.0 2.0 0.00 0.00 0.05 68 1016.0
20260508043024 64 107 0.0 2.0 0.00 0.00 0.05 69 1015.9
20260508042519 64 139 0.0 2.0 0.00 0.00 0.05 69 1015.8
20260508042017 64 87 1.0 2.0 0.00 0.00 0.05 68 1015.7
20260508041534 64 117 1.0 2.0 0.00 0.00 0.05 68 1015.6
20260508041031 64 95 0.0 2.0 0.00 0.00 0.05 68 1015.8
20260508040528 64 127 1.0 2.0 0.00 0.00 0.05 67 1015.8
20260508040024 64 121 0.0 2.0 0.00 0.00 0.05 67 1015.7
20260508035521 64 139 1.0 2.0 0.00 0.00 0.05 67 1015.8
20260508035018 64 134 0.0 2.0 0.00 0.00 0.05 67 1015.8
20260508034535 64 133 1.0 2.0 0.00 0.00 0.05 66 1015.7
20260508034051 64 117 1.0 3.0 0.00 0.00 0.05 66 1015.5
20260508033529 64 149 0.0 2.0 0.00 0.00 0.05 65 1015.6
20260508033025 65 142 0.0 2.0 0.00 0.00 0.05 65 1015.4
20260508032522 65 165 0.0 2.0 0.00 0.00 0.05 64 1015.5
20260508032019 65 165 1.0 2.0 0.00 0.00 0.05 64 1015.4
20260508031516 65 146 1.0 3.0 0.00 0.00 0.05 64 1015.4
20260508031033 65 161 1.0 4.0 0.00 0.00 0.05 64 1015.4
20260508030530 65 155 1.0 3.0 0.00 0.00 0.05 64 1015.5
20260508030027 65 159 1.0 3.0 0.00 0.00 0.05 64 1015.4
20260508025524 65 148 1.0 4.0 0.00 0.00 0.05 64 1015.3
20260508025040 65 148 1.0 3.0 0.00 0.00 0.05 63 1015.4
20260508024537 66 146 1.0 3.0 0.00 0.00 0.05 63 1015.2
20260508024034 66 166 2.0 4.0 0.00 0.00 0.05 63 1015.1
20260508023551 66 161 2.0 3.0 0.00 0.00 0.05 63 1015.2
20260508023028 66 161 1.0 3.0 0.00 0.00 0.05 63 1015.0
20260508022525 66 148 1.0 3.0 0.00 0.00 0.05 63 1014.8
20260508022022 66 160 2.0 4.0 0.00 0.00 0.05 62 1015.0